Time,TemperatureF,DewpointF,PressureIn,WindDirection,WindDirectionDegrees,WindSpeedMPH,WindSpeedGustMPH,Humidity,HourlyPrecipIn,Conditions,Clouds,dailyrainin,SoftwareType,DateUTC
2013-08-01 00:06:00,0.0,0.0,0.00,SSE,157,4.9,6.3,0,0.00,,,-99.99,Homeseer,2013-08-01 04:06:00,
2013-08-01 00:16:00,0.0,0.0,0.00,SSE,157,4.0,4.0,0,0.00,,,-99.99,Homeseer,2013-08-01 04:16:00,
2013-08-01 00:26:00,0.0,0.0,0.00,SSE,157,3.4,3.4,0,0.00,,,-99.99,Homeseer,2013-08-01 04:26:00,
2013-08-01 00:36:00,0.0,0.0,0.00,ESE,112,3.1,3.1,0,0.00,,,-99.99,Homeseer,2013-08-01 04:36:00,
2013-08-01 00:46:00,0.0,0.0,0.00,South,180,2.7,4.7,0,0.00,,,-99.99,Homeseer,2013-08-01 04:46:00,
2013-08-01 00:56:00,0.0,0.0,0.00,ESE,112,2.5,7.4,0,0.00,,,-99.99,Homeseer,2013-08-01 04:56:00,
2013-08-01 01:07:00,0.0,0.0,0.00,North,0,3.8,5.8,0,0.00,,,-99.99,Homeseer,2013-08-01 05:07:00,
2013-08-01 01:16:00,0.0,0.0,0.00,SSE,157,5.8,5.8,0,0.00,,,-99.99,Homeseer,2013-08-01 05:16:00,
2013-08-01 01:26:00,0.0,0.0,0.00,SSE,157,2.2,2.2,0,0.00,,,-99.99,Homeseer,2013-08-01 05:26:00,
2013-08-01 01:36:00,0.0,0.0,0.00,SSE,157,1.6,1.6,0,0.00,,,-99.99,Homeseer,2013-08-01 05:36:00,
2013-08-01 01:46:00,0.0,0.0,0.00,SSE,157,4.7,4.9,0,0.00,,,-99.99,Homeseer,2013-08-01 05:46:00,
2013-08-01 01:56:00,0.0,0.0,0.00,SSE,157,0.9,2.5,0,0.00,,,-99.99,Homeseer,2013-08-01 05:56:00,
2013-08-01 02:06:00,0.0,0.0,0.00,SSE,157,3.4,3.4,0,0.00,,,-99.99,Homeseer,2013-08-01 06:06:00,
2013-08-01 02:17:00,0.0,0.0,0.00,South,180,3.8,3.8,0,0.00,,,-99.99,Homeseer,2013-08-01 06:17:00,
2013-08-01 02:26:00,0.0,0.0,0.00,ENE,67,3.1,3.1,0,0.00,,,-99.99,Homeseer,2013-08-01 06:26:00,
2013-08-01 02:36:00,0.0,0.0,0.00,North,0,1.3,4.5,0,0.00,,,-99.99,Homeseer,2013-08-01 06:36:00,
2013-08-01 02:46:00,0.0,0.0,0.00,SE,135,2.2,2.5,0,0.00,,,-99.99,Homeseer,2013-08-01 06:46:00,
2013-08-01 02:56:00,0.0,0.0,0.00,WSW,247,2.7,4.9,0,0.00,,,-99.99,Homeseer,2013-08-01 06:56:00,
2013-08-01 03:06:00,0.0,0.0,0.00,SE,135,4.0,4.0,0,0.00,,,-99.99,Homeseer,2013-08-01 07:06:00,
2013-08-01 03:16:00,0.0,0.0,0.00,SE,135,2.5,2.5,0,0.00,,,-99.99,Homeseer,2013-08-01 07:16:00,
2013-08-01 03:26:00,0.0,0.0,0.00,North,0,2.0,3.8,0,0.00,,,-99.99,Homeseer,2013-08-01 07:26:00,
2013-08-01 03:36:00,0.0,0.0,0.00,SSE,157,3.4,6.0,0,0.00,,,-99.99,Homeseer,2013-08-01 07:36:00,
2013-08-01 03:46:00,0.0,0.0,0.00,WSW,247,2.2,2.2,0,0.00,,,-99.99,Homeseer,2013-08-01 07:46:00,
2013-08-01 03:56:00,0.0,0.0,0.00,North,0,2.0,2.0,0,0.00,,,-99.99,Homeseer,2013-08-01 07:56:00,
2013-08-01 04:06:00,0.0,0.0,0.00,ESE,112,3.6,4.0,0,0.00,,,-99.99,Homeseer,2013-08-01 08:06:00,
2013-08-01 04:16:00,0.0,0.0,0.00,SSE,157,3.8,3.8,0,0.00,,,-99.99,Homeseer,2013-08-01 08:16:00,
2013-08-01 04:26:00,0.0,0.0,0.00,South,180,3.8,6.0,0,0.00,,,-99.99,Homeseer,2013-08-01 08:26:00,
2013-08-01 04:36:00,0.0,0.0,0.00,SE,135,2.9,4.0,0,0.00,,,-99.99,Homeseer,2013-08-01 08:36:00,
2013-08-01 04:46:00,0.0,0.0,0.00,ESE,112,2.2,2.7,0,0.00,,,-99.99,Homeseer,2013-08-01 08:46:00,
2013-08-01 04:56:00,0.0,0.0,0.00,SE,135,2.5,4.0,0,0.00,,,-99.99,Homeseer,2013-08-01 08:56:00,
2013-08-01 05:06:00,0.0,0.0,0.00,SSE,157,4.5,4.5,0,0.00,,,-99.99,Homeseer,2013-08-01 09:06:00,
2013-08-01 05:16:00,0.0,0.0,0.00,ESE,112,4.3,4.3,0,0.00,,,-99.99,Homeseer,2013-08-01 09:16:00,
2013-08-01 05:26:00,0.0,0.0,0.00,South,180,4.5,7.2,0,0.00,,,-99.99,Homeseer,2013-08-01 09:26:00,
2013-08-01 05:46:00,0.0,0.0,0.00,South,180,5.8,5.8,0,0.00,,,-99.99,Homeseer,2013-08-01 09:46:00,
2013-08-01 05:57:00,0.0,0.0,0.00,SSE,157,4.0,5.8,0,0.00,,,-99.99,Homeseer,2013-08-01 09:57:00,
2013-08-01 06:06:00,0.0,0.0,0.00,SE,135,4.7,4.7,0,0.00,,,-99.99,Homeseer,2013-08-01 10:06:00,
2013-08-01 06:16:00,0.0,0.0,0.00,SE,135,4.0,4.7,0,0.00,,,-99.99,Homeseer,2013-08-01 10:16:00,
2013-08-01 06:46:00,0.0,0.0,0.00,SSE,157,6.3,6.9,0,0.00,,,-99.99,Homeseer,2013-08-01 10:46:00,
2013-08-01 06:56:00,0.0,0.0,0.00,North,0,4.3,5.8,0,0.00,,,-99.99,Homeseer,2013-08-01 10:56:00,
2013-08-01 07:16:00,0.0,0.0,0.00,ESE,112,4.9,4.9,0,0.00,,,-99.99,Homeseer,2013-08-01 11:16:00,
2013-08-01 07:36:00,0.0,0.0,0.00,SE,135,3.6,6.0,0,0.00,,,-99.99,Homeseer,2013-08-01 11:36:00,
2013-08-01 07:46:00,0.0,0.0,0.00,North,0,4.3,4.7,0,0.00,,,-99.99,Homeseer,2013-08-01 11:46:00,
2013-08-01 07:56:00,0.0,0.0,0.00,North,0,4.5,4.5,0,0.00,,,-99.99,Homeseer,2013-08-01 11:56:00,
2013-08-01 08:26:00,0.0,0.0,0.00,South,180,3.6,3.6,0,0.00,,,-99.99,Homeseer,2013-08-01 12:26:00,
2013-08-01 08:36:00,0.0,0.0,0.00,SSE,157,4.0,4.0,0,0.00,,,-99.99,Homeseer,2013-08-01 12:36:00,
2013-08-01 08:46:00,0.0,0.0,0.00,South,180,2.5,4.0,0,0.00,,,-99.99,Homeseer,2013-08-01 12:46:00,
2013-08-01 08:56:00,0.0,0.0,0.00,SSE,157,4.5,4.5,0,0.00,,,-99.99,Homeseer,2013-08-01 12:56:00,
2013-08-01 09:16:00,0.0,0.0,0.00,East,90,4.0,6.3,0,0.00,,,-99.99,Homeseer,2013-08-01 13:16:00,
2013-08-01 09:26:00,0.0,0.0,0.00,North,0,3.8,6.5,0,0.00,,,-99.99,Homeseer,2013-08-01 13:26:00,
2013-08-01 09:36:00,0.0,0.0,0.00,SW,225,3.6,3.6,0,0.00,,,-99.99,Homeseer,2013-08-01 13:36:00,
2013-08-01 09:56:00,0.0,0.0,0.00,South,180,3.4,5.4,0,0.00,,,-99.99,Homeseer,2013-08-01 13:56:00,
2013-08-01 10:06:00,0.0,0.0,0.00,SE,135,5.4,5.4,0,0.00,,,-99.99,Homeseer,2013-08-01 14:06:00,
2013-08-01 10:16:00,0.0,0.0,0.00,SE,135,3.6,3.8,0,0.00,,,-99.99,Homeseer,2013-08-01 14:16:00,
2013-08-01 10:36:00,0.0,0.0,0.00,SE,135,4.9,4.9,0,0.00,,,-99.99,Homeseer,2013-08-01 14:36:00,
2013-08-01 11:16:00,0.0,0.0,0.00,ESE,112,6.3,6.3,0,0.00,,,-99.99,Homeseer,2013-08-01 15:16:00,
2013-08-01 11:26:00,0.0,0.0,0.00,ESE,112,3.8,4.9,0,0.00,,,-99.99,Homeseer,2013-08-01 15:26:00,
2013-08-01 11:36:00,0.0,0.0,0.00,ESE,112,5.8,7.2,0,0.00,,,-99.99,Homeseer,2013-08-01 15:36:00,
2013-08-01 11:46:00,0.0,0.0,0.00,ESE,112,4.3,5.8,0,0.00,,,-99.99,Homeseer,2013-08-01 15:46:00,
2013-08-01 11:56:00,0.0,0.0,0.00,SSE,157,6.0,6.0,0,0.00,,,-99.99,Homeseer,2013-08-01 15:56:00,
2013-08-01 12:16:00,0.0,0.0,0.00,East,90,2.9,4.3,0,0.00,,,-99.99,Homeseer,2013-08-01 16:16:00,
2013-08-01 12:36:00,0.0,0.0,0.00,SSE,157,4.5,4.5,0,0.00,,,-99.99,Homeseer,2013-08-01 16:36:00,
2013-08-01 12:46:00,0.0,0.0,0.00,ESE,112,6.0,6.0,0,0.00,,,-99.99,Homeseer,2013-08-01 16:46:00,
2013-08-01 12:56:00,0.0,0.0,0.00,ESE,112,5.6,5.6,0,0.00,,,-99.99,Homeseer,2013-08-01 16:56:00,
2013-08-01 13:16:00,0.0,0.0,0.00,SSE,157,4.9,7.4,0,0.00,,,-99.99,Homeseer,2013-08-01 17:16:00,
2013-08-01 13:26:00,0.0,0.0,0.00,ESE,112,5.8,5.8,0,0.00,,,-99.99,Homeseer,2013-08-01 17:26:00,
2013-08-01 13:46:00,0.0,0.0,0.00,SSE,157,5.6,5.6,0,0.00,,,-99.99,Homeseer,2013-08-01 17:46:00,
2013-08-01 13:56:00,0.0,0.0,0.00,SSE,157,4.9,6.3,0,0.00,,,-99.99,Homeseer,2013-08-01 17:56:00,
2013-08-01 14:06:00,0.0,0.0,0.00,South,180,4.0,4.0,0,0.00,,,-99.99,Homeseer,2013-08-01 18:06:00,
2013-08-01 14:17:00,0.0,0.0,0.00,SE,135,4.7,4.9,0,0.00,,,-99.99,Homeseer,2013-08-01 18:17:00,
2013-08-01 14:26:00,0.0,0.0,0.00,ESE,112,5.6,6.0,0,0.00,,,-99.99,Homeseer,2013-08-01 18:26:00,
2013-08-01 14:46:00,0.0,0.0,0.00,North,0,3.8,3.8,0,0.00,,,-99.99,Homeseer,2013-08-01 18:46:00,
2013-08-01 14:56:00,0.0,0.0,0.00,ESE,112,4.9,5.8,0,0.00,,,-99.99,Homeseer,2013-08-01 18:56:00,
2013-08-01 15:06:00,0.0,0.0,0.00,SE,135,6.5,6.5,0,0.00,,,-99.99,Homeseer,2013-08-01 19:06:00,
2013-08-01 15:17:00,0.0,0.0,0.00,ESE,112,6.9,6.9,0,0.00,,,-99.99,Homeseer,2013-08-01 19:17:00,
2013-08-01 15:26:00,0.0,0.0,0.00,SSE,157,7.2,7.2,0,0.00,,,-99.99,Homeseer,2013-08-01 19:26:00,
2013-08-01 15:36:00,0.0,0.0,0.00,SSE,157,4.3,8.1,0,0.00,,,-99.99,Homeseer,2013-08-01 19:36:00,
2013-08-01 15:46:00,0.0,0.0,0.00,SE,135,6.7,10.3,0,0.00,,,-99.99,Homeseer,2013-08-01 19:46:00,
2013-08-01 15:56:00,0.0,0.0,0.00,SSE,157,4.5,4.5,0,0.00,,,-99.99,Homeseer,2013-08-01 19:56:00,
2013-08-01 16:06:00,0.0,0.0,0.00,SE,135,3.8,5.4,0,0.00,,,-99.99,Homeseer,2013-08-01 20:06:00,
2013-08-01 16:16:00,0.0,0.0,0.00,ESE,112,5.6,7.4,0,0.00,,,-99.99,Homeseer,2013-08-01 20:16:00,
2013-08-01 16:36:00,0.0,0.0,0.00,North,0,5.8,6.0,0,0.00,,,-99.99,Homeseer,2013-08-01 20:36:00,
2013-08-01 16:56:00,0.0,0.0,0.00,SSE,157,6.0,6.0,0,0.00,,,-99.99,Homeseer,2013-08-01 20:56:00,
2013-08-01 17:06:00,0.0,0.0,0.00,SE,135,6.3,7.6,0,0.00,,,-99.99,Homeseer,2013-08-01 21:06:00,
2013-08-01 17:16:00,0.0,0.0,0.00,SE,135,6.3,8.1,0,0.00,,,-99.99,Homeseer,2013-08-01 21:16:00,
2013-08-01 17:26:00,0.0,0.0,0.00,SSE,157,4.9,5.4,0,0.00,,,-99.99,Homeseer,2013-08-01 21:26:00,
2013-08-01 17:36:00,0.0,0.0,0.00,SE,135,6.9,6.9,0,0.00,,,-99.99,Homeseer,2013-08-01 21:36:00,
2013-08-01 17:56:00,0.0,0.0,0.00,SE,135,6.3,7.2,0,0.00,,,-99.99,Homeseer,2013-08-01 21:56:00,
2013-08-01 18:06:00,0.0,0.0,0.00,SE,135,6.5,6.5,0,0.00,,,-99.99,Homeseer,2013-08-01 22:06:00,
2013-08-01 18:16:00,0.0,0.0,0.00,SSE,157,5.4,10.7,0,0.00,,,-99.99,Homeseer,2013-08-01 22:16:00,
2013-08-01 18:46:00,84.7,63.8,0.00,East,90,3.8,5.6,41,0.00,,,-99.99,Homeseer,2013-08-01 22:46:00,
2013-08-01 18:56:00,84.9,64.5,0.00,North,0,4.7,6.0,42,0.00,,,-99.99,Homeseer,2013-08-01 22:56:00,
2013-08-01 19:06:00,84.9,63.9,0.00,ESE,112,3.1,3.8,41,0.00,,,-99.99,Homeseer,2013-08-01 23:06:00,
2013-08-01 19:16:00,84.7,63.8,0.00,SE,135,3.1,3.1,41,0.00,,,-99.99,Homeseer,2013-08-01 23:16:00,
2013-08-01 19:36:00,84.4,64.0,0.00,North,0,4.3,4.3,42,0.00,,,-99.99,Homeseer,2013-08-01 23:36:00,
2013-08-01 19:46:00,83.7,65.9,0.00,SSE,157,4.5,4.5,47,0.00,,,-99.99,Homeseer,2013-08-01 23:46:00,
2013-08-01 19:56:00,83.5,67.1,0.00,ESE,112,2.9,5.6,50,0.00,,,-99.99,Homeseer,2013-08-01 23:56:00,
2013-08-01 20:06:00,83.1,66.7,0.00,ESE,112,6.0,7.4,50,0.00,,,-99.99,Homeseer,2013-08-02 00:06:00,
2013-08-01 20:16:00,82.9,66.1,0.00,SSE,157,4.7,5.8,49,0.00,,,-99.99,Homeseer,2013-08-02 00:16:00,
2013-08-01 20:36:00,82.8,65.6,0.00,ESE,112,4.3,4.3,48,0.00,,,-99.99,Homeseer,2013-08-02 00:36:00,
2013-08-01 20:46:00,82.6,65.8,0.00,North,0,3.6,4.3,49,0.00,,,-99.99,Homeseer,2013-08-02 00:46:00,
2013-08-01 20:56:00,82.2,67.2,0.00,SSE,157,4.7,4.7,53,0.00,,,-99.99,Homeseer,2013-08-02 00:56:00,
2013-08-01 21:16:00,82.0,65.8,0.00,East,90,2.7,2.7,50,0.00,,,-99.99,Homeseer,2013-08-02 01:16:00,
2013-08-01 21:26:00,81.9,65.2,0.00,SSE,157,4.5,4.5,49,0.00,,,-99.99,Homeseer,2013-08-02 01:26:00,
2013-08-01 21:46:00,81.7,66.4,0.00,ESE,112,4.3,4.3,52,0.00,,,-99.99,Homeseer,2013-08-02 01:46:00,
2013-08-01 21:56:00,81.7,67.2,0.00,South,180,4.3,4.3,54,0.00,,,-99.99,Homeseer,2013-08-02 01:56:00,
2013-08-01 22:06:00,81.5,67.4,0.00,SSE,157,4.5,4.5,55,0.00,,,-99.99,Homeseer,2013-08-02 02:06:00,
2013-08-01 22:16:00,81.5,67.8,0.00,SSE,157,4.9,5.6,56,0.00,,,-99.99,Homeseer,2013-08-02 02:16:00,
2013-08-01 22:26:00,81.5,67.8,0.00,SSE,157,4.0,5.8,56,0.00,,,-99.99,Homeseer,2013-08-02 02:26:00,
2013-08-01 22:46:00,81.5,66.6,0.00,ESE,112,3.1,3.6,53,0.00,,,-99.99,Homeseer,2013-08-02 02:46:00,
2013-08-01 23:06:00,81.7,66.8,0.00,SE,135,4.3,4.3,53,0.00,,,-99.99,Homeseer,2013-08-02 03:06:00,
2013-08-01 23:16:00,81.7,67.2,0.00,North,0,3.6,3.6,54,0.00,,,-99.99,Homeseer,2013-08-02 03:16:00,
2013-08-01 23:26:00,81.5,67.4,0.00,ESE,112,4.5,4.5,55,0.00,,,-99.99,Homeseer,2013-08-02 03:26:00,
2013-08-01 23:36:00,81.5,67.4,0.00,ESE,112,4.3,4.3,55,0.00,,,-99.99,Homeseer,2013-08-02 03:36:00,
2013-08-01 23:46:00,81.5,67.4,0.00,ESE,112,4.3,4.3,55,0.00,,,-99.99,Homeseer,2013-08-02 03:46:00,
2013-08-01 23:56:00,81.5,67.4,0.00,ESE,112,2.7,2.7,55,0.00,,,-99.99,Homeseer,2013-08-02 03:56:00,